Defuniak Springs, Defuniak Sp, FL

2:55 PM CDT on July 21, 2017 (GMT -0500)
Defuniak Springs, Defuniak Sp

Weather History for K54J - December, 2013

Change the Weather History Date:

Saturday, December 28, 2013

  Actual Average (KCEW) Record (KCEW)
Temperature  
Mean Temperature 50 °F -  
Max Temperature 55 °F 66 °F 78 °F (2016)
Min Temperature 45 °F 40 °F 16 °F (2010)
Degree Days  
Heating Degree Days 16    
Moisture  
Dew Point 47 °F    
Average Humidity 89    
Maximum Humidity 100    
Minimum Humidity 62    
Precipitation  
Precipitation 0.03 in - - ()
Sea Level Pressure  
Sea Level Pressure 30.09 in    
Wind  
Wind Speed 9 mph (NE)    
Max Wind Speed 15 mph    
Max Gust Speed 21 mph    
Visibility 8 miles    
Events Fog , Rain    
Averages and records for this station are not official NWS values.
T = Trace of Precipitation, MM = Missing Value Source: NWS Daily Summary

Daily Weather History Graph

Daily Weather History Graph

Search for Another Location

Airport or City:

Trip Planner

Search our weather history database for the weather conditions in past years. The results will help you decide how hot, cold, wet, or windy it might be!

Date:

Astronomy

Dec. 28, 2013 Rise Set
Actual Time 6:41 AM CST 4:51 PM CST
Civil Twilight 6:14 AM CST 5:18 PM CST
Nautical Twilight 5:44 AM CST 5:48 PM CST
Astronomical Twilight 5:15 AM CST 6:17 PM CST
Moon 2:26 AM CST (12/28) 1:34 PM CST (12/28)
Length of Visible Light 11h 03m
Length of Day
10h 10m
Waning Crescent, 19% of the Moon is Illuminated
Dec 28
Waning Crescent
Jan 1
New
Jan 7
First Quarter
Jan 15
Full
Jan 23
Last Quarter

Hourly Weather History & Observations

Time (CST) Temp. Windchill Dew Point Humidity Pressure Visibility Wind Dir Wind Speed Gust Speed Precip Events Conditions
12:15 AM 51.3 °F - 38.5 °F 62% 30.28 in 10.0 mi ENE 6.9 mph - N/A   Overcast
12:35 AM 51.1 °F - 38.7 °F 63% 30.28 in 10.0 mi ENE 9.2 mph - N/A   Overcast
12:55 AM 51.1 °F - 38.7 °F 63% 30.28 in 10.0 mi NE 9.2 mph - N/A   Overcast
1:15 AM 50.9 °F - 38.8 °F 63% 30.27 in 10.0 mi East 6.9 mph - N/A   Overcast
1:35 AM 50.7 °F - 39.4 °F 65% 30.26 in 10.0 mi NE 9.2 mph - N/A Rain Rain
1:55 AM 50.0 °F - 40.1 °F 69% 30.26 in 10.0 mi NE 5.8 mph - N/A   Overcast
2:15 AM 50.0 °F - 40.1 °F 69% 30.24 in 10.0 mi ENE 8.1 mph - N/A   Overcast
2:35 AM 48.6 °F - 41.9 °F 78% 30.24 in 7.0 mi ENE 8.1 mph - N/A Rain Light Rain
2:55 AM 47.7 °F - 42.8 °F 83% 30.24 in 7.0 mi NE 6.9 mph - N/A   Drizzle
3:15 AM 46.4 °F 41.9 °F 43.9 °F 91% 30.23 in 7.0 mi NE 9.2 mph - N/A Rain Rain
3:35 AM 46.4 °F 41.9 °F 44.2 °F 92% 30.22 in 10.0 mi NE 9.2 mph - N/A   Light Drizzle
3:55 AM 45.9 °F 41.2 °F 44.6 °F 95% 30.22 in 10.0 mi North 9.2 mph - N/A   Light Drizzle
4:15 AM 45.9 °F 41.2 °F 44.6 °F 95% 30.21 in 10.0 mi NNE 9.2 mph - N/A   Overcast
4:35 AM 45.9 °F 40.8 °F 44.1 °F 93% 30.21 in 10.0 mi NNE 10.4 mph 16.1 mph N/A   Overcast
4:55 AM 46.2 °F 40.5 °F 43.7 °F 91% 30.21 in 10.0 mi NE 12.7 mph 16.1 mph N/A   Overcast
5:15 AM 46.4 °F 41.9 °F 43.2 °F 88% 30.22 in 10.0 mi NE 9.2 mph - N/A   Overcast
5:35 AM 46.4 °F 41.5 °F 43.2 °F 88% 30.22 in 10.0 mi NE 10.4 mph - N/A   Overcast
5:55 AM 46.9 °F - 42.8 °F 86% 30.21 in 10.0 mi NE 12.7 mph 17.3 mph 0.01 in   Overcast
6:15 AM 46.9 °F - 42.4 °F 84% 30.21 in 10.0 mi NE 11.5 mph - N/A   Overcast
6:35 AM 46.8 °F - 42.4 °F 85% 30.21 in 10.0 mi NE 10.4 mph - N/A   Light Drizzle
6:55 AM 46.9 °F - 42.4 °F 84% 30.22 in 10.0 mi NE 9.2 mph - N/A   Overcast
7:15 AM 47.3 °F - 42.1 °F 82% 30.21 in 10.0 mi ENE 10.4 mph - N/A   Overcast
7:35 AM 47.5 °F - 42.1 °F 82% 30.21 in 10.0 mi NE 9.2 mph - N/A   Overcast
7:55 AM 47.7 °F - 41.9 °F 80% 30.21 in 10.0 mi NE 10.4 mph - N/A   Overcast
8:15 AM 48.2 °F - 41.5 °F 78% 30.22 in 10.0 mi ENE 10.4 mph 16.1 mph N/A   Overcast
8:35 AM 48.6 °F - 41.4 °F 76% 30.22 in 10.0 mi ENE 11.5 mph - N/A   Overcast
8:55 AM 48.2 °F - 42.1 °F 79% 30.22 in 10.0 mi ENE 11.5 mph 17.3 mph N/A Rain Rain
9:15 AM 47.7 °F - 43.0 °F 84% 30.23 in 10.0 mi ENE 9.2 mph - N/A Rain Light Rain
9:35 AM 47.8 °F - 43.7 °F 86% 30.21 in 10.0 mi ENE 11.5 mph - N/A Rain Light Rain
9:55 AM 48.2 °F - 44.1 °F 86% 30.20 in 10.0 mi ENE 12.7 mph 17.3 mph N/A   Light Drizzle
10:15 AM 49.1 °F - 44.2 °F 83% 30.19 in 10.0 mi ENE 9.2 mph - N/A   Overcast
10:35 AM 49.5 °F - 44.6 °F 83% 30.17 in 10.0 mi ENE 9.2 mph - N/A   Overcast
10:55 AM 50.2 °F - 45.1 °F 83% 30.16 in 10.0 mi ENE 10.4 mph - N/A   Overcast
11:15 AM 51.1 °F - 46.0 °F 83% 30.15 in 10.0 mi ENE 8.1 mph - N/A   Overcast
11:35 AM 51.6 °F - 46.6 °F 83% 30.14 in 10.0 mi ENE 9.2 mph - N/A   Overcast
11:55 AM 51.8 °F - 46.8 °F 83% 30.12 in 10.0 mi ENE 6.9 mph - N/A   Overcast
12:15 PM 51.4 °F - 47.5 °F 86% 30.11 in 7.0 mi NE 8.1 mph - N/A Rain Rain
12:35 PM 50.4 °F - 48.2 °F 92% 30.09 in 10.0 mi NE 9.2 mph - N/A Rain Rain
12:55 PM 50.2 °F - 48.4 °F 94% 30.06 in 10.0 mi ENE 10.4 mph - N/A Rain Rain
1:15 PM 50.7 °F - 48.9 °F 94% 30.05 in 10.0 mi NE 9.2 mph - N/A   Overcast
1:35 PM 50.4 °F - 48.9 °F 95% 30.04 in 10.0 mi NE 9.2 mph - N/A Rain Light Rain
1:55 PM 50.4 °F - 48.9 °F 95% 30.03 in 10.0 mi ENE 10.4 mph - N/A Rain Light Rain
2:15 PM 50.5 °F - 48.7 °F 94% 30.02 in 10.0 mi ENE 10.4 mph - N/A   Overcast
2:35 PM 50.5 °F - 48.4 °F 92% 30.01 in 10.0 mi ENE 11.5 mph - N/A   Overcast
2:55 PM 50.9 °F - 48.2 °F 90% 30.01 in 10.0 mi ENE 10.4 mph 16.1 mph N/A   Overcast
3:15 PM 50.7 °F - 48.0 °F 90% 29.99 in 10.0 mi ENE 12.7 mph - N/A   Overcast
3:35 PM 50.4 °F - 47.5 °F 90% 29.98 in 10.0 mi East 10.4 mph - N/A   Overcast
3:55 PM 50.0 °F - 47.8 °F 92% 29.97 in 5.0 mi East 10.4 mph 17.3 mph N/A Rain Light Rain
4:15 PM 49.5 °F - 48.2 °F 95% 29.97 in 10.0 mi East 10.4 mph - N/A Rain Light Rain
4:35 PM 49.5 °F - 48.6 °F 97% 29.96 in 7.0 mi ENE 12.7 mph 17.3 mph N/A Rain Light Rain
4:55 PM 49.5 °F - 48.9 °F 98% 29.95 in 7.0 mi ENE 15.0 mph - N/A Rain Light Rain
5:15 PM 49.6 °F - 49.3 °F 99% 29.95 in 5.0 mi ENE 12.7 mph 17.3 mph N/A Rain Light Rain
5:35 PM 49.8 °F - 49.5 °F 99% 29.94 in 7.0 mi ENE 11.5 mph 20.7 mph N/A Rain Light Rain
5:55 PM 50.5 °F - 50.5 °F 100% 29.94 in 3.0 mi ENE 13.8 mph 17.3 mph N/A Rain Rain
6:15 PM 51.3 °F - 51.3 °F 100% 29.93 in 3.0 mi ENE 11.5 mph - N/A Rain Heavy Rain
6:35 PM 51.8 °F - 51.8 °F 100% 29.96 in 2.5 mi WNW 10.4 mph - N/A Rain Heavy Rain
6:55 PM 51.6 °F - 51.4 °F 99% 29.96 in 2.5 mi NW 10.4 mph - N/A Rain Heavy Rain
7:15 PM 51.8 °F - 51.8 °F 100% 29.96 in 3.0 mi NNW 8.1 mph - 0.01 in Rain Heavy Rain
7:35 PM 51.8 °F - 51.8 °F 100% 29.96 in 2.0 mi North 5.8 mph - 0.01 in Rain Heavy Rain
7:55 PM 51.6 °F - 51.6 °F 100% 29.96 in 5.0 mi North 5.8 mph - 0.01 in Rain Rain
8:15 PM 51.8 °F - 51.8 °F 100% 29.95 in 5.0 mi North 4.6 mph - N/A Rain Heavy Rain
8:35 PM 52.2 °F - 52.2 °F 100% 29.95 in 4.0 mi NE 4.6 mph - N/A Rain Rain
8:55 PM 52.3 °F - 52.3 °F 100% 29.94 in 7.0 mi NE 4.6 mph - N/A Rain Rain
9:15 PM 52.7 °F - 52.7 °F 100% 29.93 in 5.0 mi NE 5.8 mph - N/A Rain Rain
9:35 PM 52.7 °F - 52.7 °F 100% 29.92 in 3.0 mi ENE 5.8 mph - 0.01 in Rain Heavy Rain
9:55 PM 52.7 °F - 52.7 °F 100% 29.92 in 10.0 mi East 6.9 mph - 0.01 in Rain Rain
10:15 PM 53.1 °F - 53.1 °F 100% 29.91 in 10.0 mi ENE 3.5 mph - N/A Rain Light Rain
10:35 PM 53.2 °F - 53.2 °F 100% 29.91 in 7.0 mi ENE 3.5 mph - N/A Rain Rain
10:55 PM 53.6 °F - 53.6 °F 100% 29.89 in 7.0 mi ENE 4.6 mph - N/A Rain Heavy Rain
11:15 PM 54.0 °F - 54.0 °F 100% 29.87 in 10.0 mi East 4.6 mph - N/A   Light Drizzle
11:35 PM 54.9 °F - 54.9 °F 100% 29.86 in 3.0 mi East 3.5 mph - N/A   Overcast
11:55 PM 55.8 °F - 55.8 °F 100% 29.86 in 0.5 mi Calm Calm - N/A Fog Fog